| time (UTC) | temp C | wind direction | speed KPH | gust KPH | rain 1hr cm | rain 24hr cm | rain mn cm | humidity % | barometer mb |
| 20260506072621 | 7 | 316 | 3.2 | 19.3 | 0.00 | 0.00 | 0.00 | 81 | 1012.8 |
| 20260506071721 | 7 | 317 | 4.8 | 22.5 | 0.00 | 0.00 | 0.00 | 81 | 1012.7 |
| 20260506070821 | 7 | 318 | 6.4 | 16.1 | 0.00 | 0.00 | 0.00 | 82 | 1012.6 |
| 20260506062321 | 7 | 330 | 3.2 | 22.5 | 0.00 | 0.00 | 0.00 | 83 | 1012.6 |
| 20260506061421 | 7 | 324 | 3.2 | 16.1 | 0.00 | 0.00 | 0.00 | 83 | 1012.5 |
| 20260506060521 | 7 | 324 | 4.8 | 25.7 | 0.00 | 0.00 | 0.00 | 83 | 1012.5 |
| 20260506050221 | 6 | 349 | 3.2 | 19.3 | 0.00 | 0.00 | 0.00 | 84 | 1012.2 |
| 20260506044421 | 6 | 328 | 1.6 | 19.3 | 0.00 | 0.00 | 0.00 | 85 | 1012.2 |
| 20260506043522 | 6 | 12 | 1.6 | 16.1 | 0.00 | 0.00 | 0.00 | 85 | 1012.1 |
| 20260506042622 | 6 | 299 | 3.2 | 12.9 | 0.00 | 0.00 | 0.00 | 85 | 1012.1 |
| 20260506041722 | 6 | 323 | 3.2 | 16.1 | 0.00 | 0.00 | 0.00 | 85 | 1012.2 |
| 20260506040821 | 6 | 306 | 3.2 | 22.5 | 0.00 | 0.00 | 0.00 | 85 | 1012.2 |
| 20260506035922 | 6 | 322 | 3.2 | 12.9 | 0.00 | 0.00 | 0.00 | 85 | 1012.3 |
| 20260506035022 | 6 | 321 | 3.2 | 12.9 | 0.00 | 0.00 | 0.00 | 85 | 1012.2 |
| 20260506034121 | 6 | 315 | 3.2 | 19.3 | 0.00 | 0.00 | 0.00 | 85 | 1012.2 |
| 20260506033221 | 7 | 315 | 3.2 | 19.3 | 0.00 | 0.00 | 0.00 | 85 | 1012.2 |
| 20260506031422 | 7 | 340 | 3.2 | 22.5 | 0.00 | 0.00 | 0.00 | 84 | 1012.3 |
| 20260506030521 | 7 | 341 | 3.2 | 16.1 | 0.00 | 0.00 | 0.00 | 84 | 1012.4 |
| 20260506025621 | 7 | 329 | 3.2 | 19.3 | 0.00 | 0.00 | 0.00 | 84 | 1012.4 |
| 20260506024722 | 7 | 307 | 6.4 | 19.3 | 0.00 | 0.00 | 0.00 | 84 | 1012.4 |
| 20260506023821 | 7 | 327 | 6.4 | 25.7 | 0.00 | 0.00 | 0.00 | 84 | 1012.5 |
| 20260506022921 | 7 | 326 | 8.0 | 25.7 | 0.00 | 0.00 | 0.00 | 84 | 1012.5 |
| 20260506022022 | 7 | 312 | 4.8 | 32.2 | 0.00 | 0.00 | 0.00 | 83 | 1012.5 |
| 20260506014423 | 7 | 321 | 4.8 | 25.7 | 0.00 | 0.00 | 0.00 | 83 | 1012.7 |
| 20260506013521 | 7 | 326 | 3.2 | 25.7 | 0.00 | 0.00 | 0.00 | 82 | 1012.7 |
| 20260506011722 | 7 | 330 | 3.2 | 16.1 | 0.00 | 0.00 | 0.00 | 82 | 1012.8 |
| 20260506010821 | 7 | 319 | 3.2 | 16.1 | 0.00 | 0.00 | 0.00 | 82 | 1012.8 |
| 20260506005021 | 7 | 326 | 3.2 | 22.5 | 0.00 | 0.00 | 0.00 | 82 | 1012.8 |
| 20260506004121 | 8 | 342 | 3.2 | 22.5 | 0.00 | 0.00 | 0.00 | 81 | 1012.9 |
| 20260506003223 | 8 | 323 | 3.2 | 19.3 | 0.00 | 0.00 | 0.00 | 81 | 1012.8 |
| 20260506002322 | 8 | 328 | 3.2 | 22.5 | 0.00 | 0.00 | 0.00 | 81 | 1013.0 |
| 20260506001421 | 8 | 325 | 3.2 | 25.7 | 0.00 | 0.00 | 0.00 | 81 | 1013.0 |
| 20260506000522 | 8 | 316 | 3.2 | 22.5 | 0.00 | 0.00 | 0.00 | 81 | 1013.0 |
| 20260505235621 | 8 | 340 | 3.2 | 19.3 | 0.00 | 0.00 | 0.00 | 80 | 1012.9 |
| 20260505232922 | 8 | 358 | 3.2 | 25.7 | 0.00 | 0.00 | 0.00 | 82 | 1013.0 |
| 20260505232021 | 8 | 334 | 3.2 | 22.5 | 0.00 | 0.00 | 0.00 | 84 | 1013.0 |
| 20260505231121 | 8 | 346 | 3.2 | 25.7 | 0.00 | 0.00 | 0.00 | 83 | 1013.0 |
| 20260505230221 | 8 | 337 | 3.2 | 22.5 | 0.00 | 0.00 | 0.00 | 83 | 1013.1 |
| 20260505224422 | 8 | 320 | 3.2 | 9.7 | 0.00 | 0.00 | 0.00 | 81 | 1013.1 |
| 20260505223521 | 8 | 4 | 3.2 | 19.3 | 0.00 | 0.00 | 0.00 | 80 | 1013.2 |
| 20260505221721 | 9 | 347 | 6.4 | 25.7 | 0.00 | 0.00 | 0.00 | 79 | 1012.9 |
| 20260505220822 | 9 | 354 | 6.4 | 32.2 | 0.00 | 0.00 | 0.00 | 78 | 1012.9 |
| 20260505215922 | 9 | 326 | 6.4 | 32.2 | 0.00 | 0.00 | 0.00 | 78 | 1013.0 |
| 20260505215021 | 9 | 318 | 6.4 | 25.7 | 0.00 | 0.00 | 0.00 | 77 | 1013.0 |
| 20260505214121 | 9 | 309 | 8.0 | 25.7 | 0.00 | 0.00 | 0.00 | 78 | 1013.0 |
| 20260505212322 | 10 | 329 | 3.2 | 25.7 | 0.00 | 0.00 | 0.00 | 80 | 1012.8 |
| 20260505211421 | 10 | 359 | 6.4 | 25.7 | 0.00 | 0.00 | 0.00 | 81 | 1012.9 |
| 20260505210521 | 10 | 356 | 6.4 | 38.6 | 0.00 | 0.00 | 0.00 | 81 | 1012.9 |
| 20260505205621 | 10 | 351 | 6.4 | 38.6 | 0.00 | 0.00 | 0.00 | 81 | 1012.8 |
| 20260505204721 | 10 | 358 | 8.0 | 25.7 | 0.00 | 0.00 | 0.00 | 81 | 1012.8 |
| 20260505203822 | 10 | 5 | 8.0 | 29.0 | 0.00 | 0.00 | 0.00 | 81 | 1012.7 |
| 20260505202921 | 10 | 19 | 6.4 | 32.2 | 0.00 | 0.00 | 0.00 | 81 | 1012.6 |
| 20260505202023 | 10 | 12 | 8.0 | 32.2 | 0.00 | 0.00 | 0.00 | 82 | 1012.5 |
| 20260505201121 | 10 | 16 | 9.7 | 32.2 | 0.00 | 0.00 | 0.00 | 82 | 1012.4 |
| 20260505200222 | 10 | 23 | 6.4 | 25.7 | 0.00 | 0.00 | 0.00 | 81 | 1012.4 |
| 20260505195321 | 11 | 22 | 8.0 | 29.0 | 0.00 | 0.00 | 0.00 | 81 | 1012.3 |
| 20260505194421 | 11 | 9 | 8.0 | 35.4 | 0.00 | 0.00 | 0.00 | 81 | 1012.1 |
| 20260505192623 | 11 | 24 | 9.7 | 38.6 | 0.00 | 0.00 | 0.00 | 80 | 1012.0 |
| 20260505191721 | 11 | 14 | 9.7 | 35.4 | 0.00 | 0.00 | 0.00 | 79 | 1011.8 |
| 20260505190821 | 11 | 21 | 8.0 | 35.4 | 0.00 | 0.00 | 0.00 | 78 | 1011.8 |
| 20260505185921 | 11 | 20 | 6.4 | 35.4 | 0.00 | 0.00 | 0.00 | 77 | 1011.8 |
| 20260505185021 | 11 | 22 | 8.0 | 25.7 | 0.00 | 0.00 | 0.00 | 77 | 1011.6 |
| 20260505184122 | 12 | 21 | 6.4 | 41.8 | 0.00 | 0.00 | 0.00 | 76 | 1011.6 |
| 20260505183223 | 12 | 25 | 8.0 | 22.5 | 0.00 | 0.00 | 0.00 | 76 | 1011.5 |
| 20260505182322 | 12 | 8 | 6.4 | 35.4 | 0.00 | 0.00 | 0.00 | 75 | 1011.4 |
| 20260505181422 | 13 | 22 | 4.8 | 29.0 | 0.00 | 0.00 | 0.00 | 75 | 1011.4 |
| 20260505180522 | 13 | 339 | 4.8 | 16.1 | 0.00 | 0.00 | 0.00 | 73 | 1011.3 |
| 20260505174721 | 13 | 6 | 6.4 | 29.0 | 0.00 | 0.00 | 0.00 | 70 | 1011.2 |
| 20260505173821 | 14 | 340 | 4.8 | 32.2 | 0.00 | 0.00 | 0.00 | 69 | 1011.2 |
| 20260505172921 | 15 | 11 | 4.8 | 29.0 | 0.00 | 0.00 | 0.00 | 70 | 1011.3 |
| 20260505172021 | 15 | 348 | 6.4 | 29.0 | 0.00 | 0.00 | 0.00 | 70 | 1011.2 |
| 20260505165321 | 15 | 344 | 8.0 | 29.0 | 0.00 | 0.00 | 0.00 | 61 | 1011.2 |
| 20260505164422 | 15 | 346 | 6.4 | 29.0 | 0.00 | 0.00 | 0.00 | 61 | 1011.1 |
| 20260505163521 | 15 | 343 | 6.4 | 29.0 | 0.00 | 0.00 | 0.00 | 62 | 1011.1 |
| 20260505162621 | 15 | 321 | 6.4 | 22.5 | 0.00 | 0.00 | 0.00 | 61 | 1011.1 |
| 20260505161721 | 15 | 315 | 6.4 | 22.5 | 0.00 | 0.00 | 0.00 | 61 | 1011.1 |
| 20260505160822 | 15 | 323 | 3.2 | 25.7 | 0.00 | 0.00 | 0.00 | 60 | 1011.1 |
| 20260505153221 | 15 | 311 | 4.8 | 19.3 | 0.00 | 0.00 | 0.00 | 61 | 1011.1 |
| 20260505152322 | 15 | 314 | 6.4 | 16.1 | 0.00 | 0.00 | 0.00 | 62 | 1011.2 |
| 20260505151421 | 15 | 322 | 4.8 | 19.3 | 0.00 | 0.00 | 0.00 | 62 | 1011.2 |
| 20260505150521 | 15 | 312 | 3.2 | 19.3 | 0.00 | 0.00 | 0.00 | 62 | 1011.2 |
| 20260505140221 | 16 | 339 | 3.2 | 22.5 | 0.00 | 0.00 | 0.00 | 59 | 1011.3 |
| 20260505125021 | 16 | 317 | 3.2 | 12.9 | 0.00 | 0.00 | 0.00 | 59 | 1011.5 |
| 20260505124123 | 17 | 330 | 1.6 | 12.9 | 0.00 | 0.00 | 0.00 | 58 | 1011.5 |
| 20260505123222 | 17 | 11 | 1.6 | 19.3 | 0.00 | 0.00 | 0.00 | 59 | 1011.4 |
| 20260505122323 | 17 | 0 | 0.0 | 12.9 | 0.00 | 0.00 | 0.00 | 59 | 1011.5 |
| 20260505121422 | 15 | 0 | 0.0 | 12.9 | 0.00 | 0.00 | 0.00 | 64 | 1011.6 |
| 20260505120521 | 15 | 314 | 3.2 | 9.7 | 0.00 | 0.00 | 0.00 | 65 | 1011.6 |
| 20260505115622 | 15 | 314 | 1.6 | 16.1 | 0.00 | 0.00 | 0.00 | 66 | 1011.7 |
| 20260505114721 | 15 | 310 | 3.2 | 16.1 | 0.00 | 0.00 | 0.00 | 66 | 1011.7 |
| 20260505113822 | 15 | 322 | 1.6 | 19.3 | 0.00 | 0.00 | 0.00 | 65 | 1011.7 |
| 20260505112921 | 15 | 0 | 0.0 | 12.9 | 0.00 | 0.00 | 0.00 | 67 | 1011.7 |
| 20260505112021 | 15 | 0 | 0.0 | 6.4 | 0.00 | 0.00 | 0.00 | 66 | 1011.8 |
| 20260505110222 | 14 | 0 | 0.0 | 6.4 | 0.00 | 0.00 | 0.00 | 69 | 1012.0 |
| 20260505101721 | 14 | 0 | 0.0 | 6.4 | 0.00 | 0.00 | 0.00 | 71 | 1012.2 |
| 20260505100821 | 14 | 315 | 1.6 | 6.4 | 0.00 | 0.00 | 0.00 | 71 | 1012.2 |
| 20260505095921 | 14 | 9 | 1.6 | 12.9 | 0.00 | 0.00 | 0.00 | 71 | 1012.3 |
| 20260505095022 | 14 | 0 | 0.0 | 9.7 | 0.00 | 0.00 | 0.00 | 73 | 1012.3 |
| 20260505094121 | 13 | 0 | 0.0 | 9.7 | 0.00 | 0.00 | 0.00 | 74 | 1012.4 |
| 20260505093221 | 13 | 0 | 0.0 | 6.4 | 0.00 | 0.00 | 0.00 | 75 | 1012.4 |
| 20260505091421 | 12 | 341 | 1.6 | 12.9 | 0.00 | 0.00 | 0.00 | 78 | 1012.4 |
| 20260505090521 | 12 | 15 | 0.0 | 16.1 | 0.00 | 0.00 | 0.00 | 79 | 1012.5 |
| 20260505084721 | 12 | 0 | 0.0 | 12.9 | 0.00 | 0.00 | 0.00 | 82 | 1012.6 |
| 20260505083821 | 12 | 0 | 0.0 | 6.4 | 0.00 | 0.00 | 0.00 | 83 | 1012.6 |
| 20260505081122 | 11 | 0 | 0.0 | 9.7 | 0.00 | 0.00 | 0.00 | 86 | 1012.6 |
| 20260505080222 | 11 | 0 | 0.0 | 6.4 | 0.00 | 0.00 | 0.00 | 86 | 1012.6 |
| 20260505074421 | 11 | 0 | 0.0 | 3.2 | 0.00 | 0.00 | 0.00 | 87 | 1012.5 |
| 20260505073522 | 10 | 0 | 0.0 | 6.4 | 0.00 | 0.00 | 0.00 | 88 | 1012.5 |